Time,TemperatureF,DewpointF,PressureIn,WindDirection,WindDirectionDegrees,WindSpeedMPH,WindSpeedGustMPH,Humidity,HourlyPrecipIn,Conditions,Clouds,dailyrainin,SoftwareType,DateUTC
2013-01-22 00:00:00,25.6,9.9,29.52,NNW,338,13.6,13.6,51,0.00,,,0.00,WUHU216HW,2013-01-22 05:00:00,
2013-01-22 00:01:00,25.6,9.9,29.52,NNW,338,13.6,13.6,51,0.00,,,0.00,WUHU216HW,2013-01-22 05:01:00,
2013-01-22 00:03:00,25.6,9.9,29.52,NNW,338,13.6,13.6,51,0.00,,,0.00,WUHU216HW,2013-01-22 05:03:00,
2013-01-22 00:08:00,25.6,9.9,29.52,NNW,338,13.6,13.6,51,0.00,,,0.00,WUHU216HW,2013-01-22 05:08:00,
2013-01-22 00:30:00,23.9,5.1,29.53,WNW,293,9.2,9.2,44,0.00,,,0.00,WUHU216HW,2013-01-22 05:30:00,
2013-01-22 00:35:00,23.9,5.1,29.53,WNW,293,9.2,9.2,44,0.00,,,0.00,WUHU216HW,2013-01-22 05:35:00,
2013-01-22 01:00:00,22.5,5.2,29.53,WNW,293,12.3,12.3,47,0.00,,,0.00,WUHU216HW,2013-01-22 06:00:00,
2013-01-22 01:05:00,22.5,5.2,29.53,WNW,293,12.3,12.3,47,0.00,,,0.00,WUHU216HW,2013-01-22 06:05:00,
2013-01-22 01:30:00,21.2,3.5,29.56,WNW,293,12.5,12.5,46,0.00,,,0.00,WUHU216HW,2013-01-22 06:30:00,
2013-01-22 01:35:00,21.2,3.5,29.56,WNW,293,12.5,12.5,46,0.00,,,0.00,WUHU216HW,2013-01-22 06:35:00,
2013-01-22 02:00:00,20.5,2.9,29.57,NW,315,11.4,11.4,46,0.00,,,0.00,WUHU216HW,2013-01-22 07:00:00,
2013-01-22 02:05:00,20.5,2.9,29.57,NW,315,11.4,11.4,46,0.00,,,0.00,WUHU216HW,2013-01-22 07:05:00,
2013-01-22 02:30:00,19.8,1.8,29.59,WNW,293,10.5,10.5,45,0.00,,,0.00,WUHU216HW,2013-01-22 07:30:00,
2013-01-22 02:35:00,19.8,1.8,29.59,WNW,293,10.5,10.5,45,0.00,,,0.00,WUHU216HW,2013-01-22 07:35:00,
2013-01-22 03:00:00,19.1,-1.3,29.60,NW,315,12.1,12.1,40,0.00,,,0.00,WUHU216HW,2013-01-22 08:00:00,
2013-01-22 03:05:00,19.1,-1.3,29.60,NW,315,12.1,12.1,40,0.00,,,0.00,WUHU216HW,2013-01-22 08:05:00,
2013-01-22 03:30:00,18.4,-0.9,29.61,NW,315,6.3,6.3,42,0.00,,,0.00,WUHU216HW,2013-01-22 08:30:00,
2013-01-22 03:35:00,18.4,-0.9,29.61,NW,315,6.3,6.3,42,0.00,,,0.00,WUHU216HW,2013-01-22 08:35:00,
2013-01-22 04:00:00,17.5,0.1,29.62,WNW,293,8.7,8.7,46,0.00,,,0.00,WUHU216HW,2013-01-22 09:00:00,
2013-01-22 04:05:00,17.5,0.1,29.62,WNW,293,8.7,8.7,46,0.00,,,0.00,WUHU216HW,2013-01-22 09:05:00,
2013-01-22 04:30:00,16.9,0.1,29.63,NW,315,8.5,8.5,47,0.00,,,0.00,WUHU216HW,2013-01-22 09:30:00,
2013-01-22 04:35:00,16.9,0.1,29.63,NW,315,8.5,8.5,47,0.00,,,0.00,WUHU216HW,2013-01-22 09:35:00,
2013-01-22 05:00:00,16.4,-0.4,29.64,West,270,8.3,8.3,47,0.00,,,0.00,WUHU216HW,2013-01-22 10:00:00,
2013-01-22 05:05:00,16.4,-0.4,29.64,West,270,8.3,8.3,47,0.00,,,0.00,WUHU216HW,2013-01-22 10:05:00,
2013-01-22 05:30:00,16.0,-1.3,29.65,WNW,293,6.9,6.9,46,0.00,,,0.00,WUHU216HW,2013-01-22 10:30:00,
2013-01-22 05:35:00,16.0,-1.3,29.65,WNW,293,6.9,6.9,46,0.00,,,0.00,WUHU216HW,2013-01-22 10:35:00,
2013-01-22 06:00:00,15.5,-1.2,29.67,NW,315,7.2,7.2,47,0.00,,,0.00,WUHU216HW,2013-01-22 11:00:00,
2013-01-22 06:05:00,15.5,-1.2,29.67,NW,315,7.2,7.2,47,0.00,,,0.00,WUHU216HW,2013-01-22 11:05:00,
2013-01-22 06:30:00,15.1,0.2,29.68,WNW,293,6.9,6.9,51,0.00,,,0.00,WUHU216HW,2013-01-22 11:30:00,
2013-01-22 06:35:00,15.1,0.2,29.68,WNW,293,6.9,6.9,51,0.00,,,0.00,WUHU216HW,2013-01-22 11:35:00,
2013-01-22 07:00:00,14.8,-0.2,29.70,NW,315,7.6,7.6,51,0.00,,,0.00,WUHU216HW,2013-01-22 12:00:00,
2013-01-22 07:05:00,14.8,-0.2,29.70,NW,315,7.6,7.6,51,0.00,,,0.00,WUHU216HW,2013-01-22 12:05:00,
2013-01-22 07:30:00,14.2,-1.1,29.71,WNW,293,9.2,9.2,50,0.00,,,0.00,WUHU216HW,2013-01-22 12:30:00,
2013-01-22 07:35:00,14.2,-1.1,29.71,WNW,293,9.2,9.2,50,0.00,,,0.00,WUHU216HW,2013-01-22 12:35:00,
2013-01-22 08:00:00,14.2,-1.1,29.73,NW,315,4.0,4.0,50,0.00,,,0.00,WUHU216HW,2013-01-22 13:00:00,
2013-01-22 08:05:00,14.2,-1.1,29.73,NW,315,4.0,4.0,50,0.00,,,0.00,WUHU216HW,2013-01-22 13:05:00,
2013-01-22 08:30:00,15.5,0.5,29.75,West,270,1.1,1.1,51,0.00,,,0.00,WUHU216HW,2013-01-22 13:30:00,
2013-01-22 08:35:00,15.5,0.5,29.75,West,270,1.1,1.1,51,0.00,,,0.00,WUHU216HW,2013-01-22 13:35:00,
2013-01-22 09:00:00,16.2,0.4,29.76,NW,315,8.7,8.7,49,0.00,,,0.00,WUHU216HW,2013-01-22 14:00:00,
2013-01-22 09:05:00,16.2,0.4,29.76,NW,315,8.7,8.7,49,0.00,,,0.00,WUHU216HW,2013-01-22 14:05:00,
2013-01-22 09:30:00,16.4,-1.3,29.76,WNW,293,10.5,10.5,45,0.00,,,0.00,WUHU216HW,2013-01-22 14:30:00,
2013-01-22 09:35:00,16.4,-1.3,29.76,WNW,293,10.5,10.5,45,0.00,,,0.00,WUHU216HW,2013-01-22 14:35:00,
2013-01-22 10:00:00,18.2,-1.5,29.77,WNW,293,8.5,8.5,41,0.00,,,0.00,WUHU216HW,2013-01-22 15:00:00,
2013-01-22 10:05:00,18.2,-1.5,29.77,WNW,293,8.5,8.5,41,0.00,,,0.00,WUHU216HW,2013-01-22 15:05:00,
2013-01-22 10:30:00,20.3,-1.9,29.77,NNW,338,4.5,4.5,37,0.00,,,0.00,WUHU216HW,2013-01-22 15:30:00,
2013-01-22 10:35:00,20.3,-1.9,29.77,NNW,338,4.5,4.5,37,0.00,,,0.00,WUHU216HW,2013-01-22 15:35:00,
2013-01-22 11:00:00,22.0,-1.7,29.78,WNW,293,12.5,12.5,35,0.00,,,0.00,WUHU216HW,2013-01-22 16:00:00,
2013-01-22 11:05:00,22.0,-1.7,29.78,WNW,293,12.5,12.5,35,0.00,,,0.00,WUHU216HW,2013-01-22 16:05:00,
2013-01-22 11:30:00,23.2,-2.4,29.77,NW,315,4.7,4.7,32,0.00,,,0.00,WUHU216HW,2013-01-22 16:30:00,
2013-01-22 11:35:00,23.2,-2.4,29.77,NW,315,4.7,4.7,32,0.00,,,0.00,WUHU216HW,2013-01-22 16:35:00,
2013-01-22 12:00:00,24.1,-0.4,29.75,WNW,293,10.1,10.1,34,0.00,,,0.00,WUHU216HW,2013-01-22 17:00:00,
2013-01-22 12:05:00,24.1,-0.4,29.75,WNW,293,10.1,10.1,34,0.00,,,0.00,WUHU216HW,2013-01-22 17:05:00,
2013-01-22 12:30:00,23.0,-2.5,29.74,NW,315,8.1,8.1,32,0.00,,,0.00,WUHU216HW,2013-01-22 17:30:00,
2013-01-22 12:35:00,23.0,-2.5,29.74,NW,315,8.1,8.1,32,0.00,,,0.00,WUHU216HW,2013-01-22 17:35:00,
2013-01-22 13:00:00,23.2,-1.2,29.73,WNW,293,8.5,8.5,34,0.00,,,0.00,WUHU216HW,2013-01-22 18:00:00,
2013-01-22 13:05:00,23.2,-1.2,29.73,WNW,293,8.5,8.5,34,0.00,,,0.00,WUHU216HW,2013-01-22 18:05:00,
2013-01-22 13:30:00,23.9,-1.7,29.72,WNW,293,5.1,5.1,32,0.00,,,0.00,WUHU216HW,2013-01-22 18:30:00,
2013-01-22 13:35:00,23.9,-1.7,29.72,WNW,293,5.1,5.1,32,0.00,,,0.00,WUHU216HW,2013-01-22 18:35:00,
2013-01-22 14:00:00,24.7,-1.1,29.73,WNW,293,10.3,10.3,32,0.00,,,0.00,WUHU216HW,2013-01-22 19:00:00,
2013-01-22 14:05:00,24.7,-1.1,29.73,WNW,293,10.3,10.3,32,0.00,,,0.00,WUHU216HW,2013-01-22 19:05:00,
2013-01-22 14:30:00,26.3,-1.0,29.73,WNW,293,10.7,10.7,30,0.00,,,0.00,WUHU216HW,2013-01-22 19:30:00,
2013-01-22 14:35:00,26.3,-1.0,29.73,WNW,293,10.7,10.7,30,0.00,,,0.00,WUHU216HW,2013-01-22 19:35:00,
2013-01-22 15:00:00,26.6,-1.5,29.73,NW,315,4.0,4.0,29,0.00,,,0.00,WUHU216HW,2013-01-22 20:00:00,
2013-01-22 15:05:00,26.6,-1.5,29.73,NW,315,4.0,4.0,29,0.00,,,0.00,WUHU216HW,2013-01-22 20:05:00,
2013-01-22 15:30:00,27.5,-1.6,29.73,West,270,10.5,10.5,28,0.00,,,0.00,WUHU216HW,2013-01-22 20:30:00,
2013-01-22 15:35:00,27.5,-1.6,29.73,West,270,10.5,10.5,28,0.00,,,0.00,WUHU216HW,2013-01-22 20:35:00,
2013-01-22 16:00:00,31.1,0.7,29.74,WNW,293,6.0,6.0,27,0.00,,,0.00,WUHU216HW,2013-01-22 21:00:00,
2013-01-22 16:05:00,31.1,0.7,29.74,WNW,293,6.0,6.0,27,0.00,,,0.00,WUHU216HW,2013-01-22 21:05:00,
2013-01-22 16:30:00,30.2,-0.9,29.75,West,270,10.3,10.3,26,0.00,,,0.00,WUHU216HW,2013-01-22 21:30:00,
2013-01-22 16:31:00,30.2,-0.9,29.75,West,270,10.3,10.3,26,0.00,,,0.00,WUHU216HW,2013-01-22 21:31:00,
2013-01-22 16:36:00,30.2,-0.9,29.75,West,270,10.3,10.3,26,0.00,,,0.00,WUHU216HW,2013-01-22 21:36:00,
2013-01-22 17:00:00,27.4,-0.9,29.76,NW,315,4.0,4.0,29,0.00,,,0.00,WUHU216HW,2013-01-22 22:00:00,
2013-01-22 17:05:00,27.4,-0.9,29.76,NW,315,4.0,4.0,29,0.00,,,0.00,WUHU216HW,2013-01-22 22:05:00,
2013-01-22 17:30:00,20.7,-3.4,29.77,WNW,293,1.3,1.3,34,0.00,,,0.00,WUHU216HW,2013-01-22 22:30:00,
2013-01-22 17:35:00,20.7,-3.4,29.77,WNW,293,1.3,1.3,34,0.00,,,0.00,WUHU216HW,2013-01-22 22:35:00,
2013-01-22 18:00:00,18.9,-3.9,29.78,NW,315,1.1,1.1,36,0.00,,,0.00,WUHU216HW,2013-01-22 23:00:00,
2013-01-22 18:05:00,18.9,-3.9,29.78,NW,315,1.1,1.1,36,0.00,,,0.00,WUHU216HW,2013-01-22 23:05:00,
2013-01-22 18:30:00,17.6,-3.8,29.79,NNW,338,0.4,0.4,38,0.00,,,0.00,WUHU216HW,2013-01-22 23:30:00,
2013-01-22 18:35:00,17.6,-3.8,29.79,NNW,338,0.4,0.4,38,0.00,,,0.00,WUHU216HW,2013-01-22 23:35:00,
2013-01-22 19:00:00,16.4,-3.3,29.80,NW,315,0.4,0.4,41,0.00,,,0.00,WUHU216HW,2013-01-23 00:00:00,
2013-01-22 19:05:00,16.4,-3.3,29.80,NW,315,0.4,0.4,41,0.00,,,0.00,WUHU216HW,2013-01-23 00:05:00,
2013-01-22 19:30:00,16.0,-3.7,29.80,NW,315,1.6,1.6,41,0.00,,,0.00,WUHU216HW,2013-01-23 00:30:00,
2013-01-22 19:35:00,16.0,-3.7,29.80,NW,315,1.6,1.6,41,0.00,,,0.00,WUHU216HW,2013-01-23 00:35:00,
2013-01-22 20:00:00,14.9,-3.7,29.81,NNW,338,0.0,0.0,43,0.00,,,0.00,WUHU216HW,2013-01-23 01:00:00,
2013-01-22 20:05:00,14.9,-3.7,29.81,NNW,338,0.0,0.0,43,0.00,,,0.00,WUHU216HW,2013-01-23 01:05:00,
2013-01-22 20:30:00,14.0,-4.0,29.81,NNW,338,0.0,0.0,44,0.00,,,0.00,WUHU216HW,2013-01-23 01:30:00,
2013-01-22 20:35:00,14.0,-4.0,29.81,NNW,338,0.0,0.0,44,0.00,,,0.00,WUHU216HW,2013-01-23 01:35:00,
2013-01-22 21:00:00,13.7,-3.4,29.82,NW,315,0.2,0.2,46,0.00,,,0.00,WUHU216HW,2013-01-23 02:00:00,
2013-01-22 21:05:00,13.7,-3.4,29.82,NW,315,0.2,0.2,46,0.00,,,0.00,WUHU216HW,2013-01-23 02:05:00,
2013-01-22 21:30:00,13.5,-3.1,29.82,WNW,293,0.4,0.4,47,0.00,,,0.00,WUHU216HW,2013-01-23 02:30:00,
2013-01-22 21:35:00,13.5,-3.1,29.82,WNW,293,0.4,0.4,47,0.00,,,0.00,WUHU216HW,2013-01-23 02:35:00,
2013-01-22 22:00:00,13.1,-3.0,29.82,WNW,293,0.0,0.0,48,0.00,,,0.00,WUHU216HW,2013-01-23 03:00:00,
2013-01-22 22:05:00,13.1,-3.0,29.82,WNW,293,0.0,0.0,48,0.00,,,0.00,WUHU216HW,2013-01-23 03:05:00,
2013-01-22 22:30:00,13.7,-2.5,29.82,North,0,0.0,0.0,48,0.00,,,0.00,WUHU216HW,2013-01-23 03:30:00,
2013-01-22 22:35:00,13.7,-2.5,29.82,North,0,0.0,0.0,48,0.00,,,0.00,WUHU216HW,2013-01-23 03:35:00,
2013-01-22 23:00:00,14.0,-2.1,29.82,NW,315,4.0,4.0,48,0.00,,,0.00,WUHU216HW,2013-01-23 04:00:00,
2013-01-22 23:05:00,14.0,-2.1,29.82,NW,315,4.0,4.0,48,0.00,,,0.00,WUHU216HW,2013-01-23 04:05:00,
2013-01-22 23:30:00,14.0,-2.7,29.83,NW,315,2.7,2.7,47,0.00,,,0.00,WUHU216HW,2013-01-23 04:30:00,
2013-01-22 23:35:00,14.0,-2.7,29.83,NW,315,2.7,2.7,47,0.00,,,0.00,WUHU216HW,2013-01-23 04:35:00,